AO-07 1 07530U 74089B 17325.53985194 -.00000050 00000-0 -34551-4 0 9994 2 07530 101.6551 291.2506 0012359 18.5531 95.3250 12.53629818968578 UO-11 1 14781U 84021B 17324.71115376 .00000153 00000-0 25019-4 0 9994 2 14781 097.6779 004.4926 0009626 053.3490 306.8608 14.82956943792549 LO-19 1 20442U 90005G 17324.77283974 .00000034 00000-0 28586-4 0 9990 2 20442 98.5892 259.7783 0012671 48.9946 311.2332 14.32878497454048 HUBBLE 1 20580U 90037B 17324.72339730 .00000720 00000-0 33347-4 0 9998 2 20580 028.4704 053.0516 0002957 058.9513 076.0770 15.08923964313861 MET-2/21 1 22782U 93055A 17324.92440324 .00000081 00000-0 59370-4 0 9995 2 22782 082.5498 259.1881 0022358 354.9862 067.9807 13.83805252223102 AO-27 1 22825U 93061C 17324.92427350 -.00000005 00000-0 15789-4 0 9997 2 22825 098.8346 292.5985 0007532 229.9743 130.0779 14.30013836259532 IO-26 1 22826U 93061D 17324.98922621 .00000008 00000-0 20715-4 0 9992 2 22826 98.8287 292.7278 0008171 219.1291 140.9301 14.30344059259998 FO-29 1 24278U 96046B 17325.51808851 -.00000056 00000-0 -17681-4 0 9992 2 24278 98.5362 187.6506 0349415 289.6901 66.6859 13.53080421 50150 NOAA-15 1 25338U 98030A 17325.54748948 .00000042 00000-0 36372-4 0 9999 2 25338 98.7787 336.7507 0011551 108.4950 251.7486 14.25826881 15431 GO-32 1 25397U 98043D 17324.85549298 .00000003 00000-0 20288-4 0 9994 2 25397 98.6266 263.9960 0000161 259.9917 100.1243 14.23634053 6086 ISS 1 25544U 98067A 17325.60009263 .00002709 00000-0 48044-4 0 9996 2 25544 51.6412 333.5923 0004264 138.5938 11.3472 15.54195017 86237 NO-44 1 26931U 01043C 17325.00325754 .00000008 00000-0 34782-4 0 9999 2 26931 67.0527 46.5819 0005302 263.9559 96.0938 14.30483802842778 SO-50 1 27607U 02058C 17324.51571599 .00000084 00000-0 32772-4 0 9993 2 27607 64.5564 7.8274 0039582 24.6719 335.6265 14.75392228802179 CO-55 1 27844U 03031E 17325.54172849 .00000076 00000-0 54289-4 0 9995 2 27844 98.6892 332.2578 0008775 250.3700 109.6531 14.22076449746688 CO-57 1 27848U 03031J 17324.95095960 .00000055 00000-0 44895-4 0 9990 2 27848 098.6983 331.9988 0008632 263.3362 096.6833 14.21685737746443 RS-22 1 27939U 03042A 17325.57334979 .00000162 00000-0 37640-4 0 9997 2 27939 97.9616 105.4659 0014315 87.7264 333.1993 14.66630563756388 NOAA-18 1 28654U 05018A 17325.53881508 .00000002 00000-0 26439-4 0 9995 2 28654 99.1701 351.5078 0014118 354.1910 5.9095 14.12357852644472 CO-58 1 28895U 05043F 17325.43257776 .00000246 00000-0 56088-4 0 9996 2 28895 97.8823 120.6633 0016989 10.9090 349.2478 14.63474556643481 Falconsat-3 1 30776U 07006E 17324.94397021 .00002639 00000-0 81249-4 0 9996 2 30776 35.4345 151.3888 0003958 302.2581 57.7761 15.33434023592321 CO-65 1 32785U 08021C 17325.20068203 .00000331 00000-0 41692-4 0 9998 2 32785 97.5570 342.2301 0013416 14.7211 345.4394 14.88008512518245 AAUSAT2 1 32788U 08021F 17324.89306088 .00000934 00000-0 92368-4 0 9996 2 32788 097.5435 354.8592 0011034 332.8866 027.1777 14.94112554518971 DO-64 1 32789U 08021G 17324.91881601 .00001911 00000-0 13701-3 0 9998 2 32789 097.5400 019.7435 0011328 289.4686 070.5317 15.05488673520347 CO-66 1 32791U 08021J 17324.61830254 .00000653 00000-0 72380-4 0 9997 2 32791 097.5512 346.5064 0013293 359.5136 000.6067 14.90392141518367 RS-30 1 32953U 08025A 17325.55031347 -.00000004 00000-0 -10245-3 0 9994 2 32953 82.4997 141.8143 0018609 303.5082 56.4219 12.43080009430977 PRISM 1 33493U 09002B 17325.50089077 .00000836 00000-0 80240-4 0 9992 2 33493 98.1474 214.4021 0014260 286.2978 73.6678 14.95950846479295 NOAA-19 1 33591U 09005A 17325.48564856 .00000118 00000-0 89396-4 0 9998 2 33591 99.1147 294.7079 0013746 186.3689 173.7310 14.12230527452857 TISAT-1 1 36799U 10035E 17324.90034157 .00000758 00000-0 83435-4 0 9996 2 36799 098.0808 091.0025 0012743 166.9151 193.2399 14.90605121398928 JUGNU 1 37839U 11058B 17324.12479487 .00000330 00000-0 34255-4 0 9993 2 37839 19.9604 224.9491 0019085 102.5503 13.2624 14.12601623315778 SRMSAT 1 37841U 11058D 17325.26079059 .00000344 00000-0 44289-4 0 9996 2 37841 19.9719 262.9787 0011772 7.5790 115.6323 14.10592012315485 AO-71 1 37854U 11061E 17325.41356842 .00004804 00000-0 25834-3 0 9998 2 37854 101.7017 279.0114 0165610 329.4553 29.7093 15.04808912330576 HRBE 1 37855U 11061F 17324.79983628 .00004266 00000-0 22623-3 0 9992 2 37855 101.7138 275.7835 0178723 338.7661 020.6197 15.03761205329852 ALMASAT-1 1 38078U 12006B 17325.54107102 .00017092 36729-5 18259-3 0 9992 2 38078 69.4359 66.6975 0277545 57.4339 24.9884 15.29872561308781 HORYU-2 1 38340U 12025D 17324.95350750 .00000282 00000-0 49603-4 0 9997 2 38340 098.3765 334.4172 0012270 148.5321 211.6623 14.75448118285995 RS-40 1 38735U 12041C 17324.89670525 .00000034 00000-0 17773-3 0 9998 2 38735 082.4783 226.4683 0017801 048.1260 312.1335 12.42575189241132 BEESAT-3 1 39134U 13015E 17324.93783062 .00002464 00000-0 12719-3 0 9994 2 39134 064.8649 080.2400 0031612 240.8186 118.9777 15.18496645252890 BEESAT-2 1 39136U 13015G 17325.11787241 .00001630 00000-0 94587-4 0 9998 2 39136 64.8710 92.6138 0032696 260.3134 99.4298 15.15630547253057 ZACUBE-1 1 39417U 13066B 17324.93294364 .00000320 00000-0 46705-4 0 9998 2 39417 097.6118 359.4290 0060609 116.5877 244.1565 14.80822447215977 TRITON-1 1 39427U 13066M 17324.94565081 .00000251 00000-0 48265-4 0 9993 2 39427 097.6364 329.7894 0113577 205.9394 153.6093 14.67564407213849 GOMX-1 1 39430U 13066Q 17325.50648203 .00000316 00000-0 66979-4 0 9992 2 39430 97.6763 312.6420 0150331 266.2506 92.1495 14.58976534212868 LO-74 1 39440U 13066AA 17324.62651162 .00000340 00000-0 54298-4 0 9991 2 39440 97.6157 347.1257 0081393 151.8854 208.6788 14.75560482215168 AO-73 1 39444U 13066AE 17325.10417080 .00000397 00000-0 55412-4 0 9999 2 39444 97.6132 0.8484 0059791 112.3227 248.4340 14.81578561214847 SPROUT 1 39770U 14029E 17325.48900548 .00001045 00000-0 12408-3 0 9996 2 39770 97.8762 63.3769 0009429 163.1241 197.0289 14.86536917189502 DUCHIFAT-1 1 40021U 14033M 17325.44414701 .00000915 00000-0 10045-3 0 9999 2 40021 97.9151 238.7988 0013750 138.1485 222.0786 14.90104074186015 NANOSATCBR1 1 40024U 14033Q 17324.71255470 .00000693 00000-0 78802-4 0 9996 2 40024 97.9099 236.6970 0013000 141.8028 218.4112 14.89396720185840 EO-79 1 40025U 14033R 17324.84426994 .00000542 00000-0 64157-4 0 9993 2 40025 97.9072 235.6282 0013174 144.8726 215.3362 14.88570655185794 DTUSAT-2 1 40030U 14033W 17324.75499425 .00000499 00000-0 60091-4 0 9992 2 40030 97.9030 234.4854 0012743 139.8033 220.4128 14.88186018185739 EO-80 1 40032U 14033Y 17324.80401296 .00000484 00000-0 58550-4 0 9990 2 40032 97.9038 234.5392 0012710 140.1743 220.0409 14.88121874185731 ANTELSAT 1 40034U 14033AA 17325.52975931 .00000385 00000-0 64867-4 0 9992 2 40034 97.8364 204.3927 0059597 145.5783 214.9309 14.73809035184107 VELOX-1 1 40057U 14034E 17325.51552407 .00000481 00000-0 75422-4 0 9992 2 40057 98.1946 68.1653 0009672 274.9321 85.0779 14.77274855182980 DAURIA DX 1 1 40071U 14037C 17325.47953135 .00000161 00000-0 28110-4 0 9996 2 40071 98.3517 82.9339 0007169 271.0668 88.9724 14.81089876182252 UKUBE-1 1 40074U 14037F 17325.37424883 .00000452 00000-0 61835-4 0 9995 2 40074 98.3626 87.5185 0003289 267.3305 92.7539 14.83653653182485 HODOYOSHI-1 1 40299U 14070B 17325.41864515 .00001125 00000-0 51393-4 0 9992 2 40299 97.3955 45.7232 0011427 261.7140 228.7995 15.22599196168863 CHUBUSAT-1 1 40300U 14070C 17325.46053779 .00001222 00000-0 57640-4 0 9991 2 40300 97.3856 42.4127 0018603 271.8557 217.2484 15.21234185168690 QSAT-EOS 1 40301U 14070D 17325.43999093 .00002663 00000-0 11201-3 0 9999 2 40301 97.3793 42.9126 0025398 264.4477 224.5443 15.24000372168770 FIREBIRD FU3 1 40377U 15003B 17324.65941565 .00003215 00000-0 13680-3 0 9990 2 40377 99.1097 179.8884 0133191 203.1938 156.3244 15.16320403154715 FIREBIRD FU4 1 40378U 15003C 17325.50767874 .00003898 00000-0 16456-3 0 9996 2 40378 99.1100 180.9536 0133411 200.2677 159.3227 15.16341426154847 GRIFEX 1 40379U 15003D 17325.49136900 .00003290 00000-0 14845-3 0 9991 2 40379 99.1134 178.0399 0139660 209.9905 149.3269 15.13672151154677 NO-84 1 40654U 15025D 17325.31493319 .00012225 00000-0 21664-3 0 01483 2 40654 054.9996 252.8497 0165520 302.1675 056.3389 15.37013080023842 NO-83 1 40655U 15025E 17325.34207324 .00023565 00000-0 30775-3 0 01679 2 40655 054.9798 216.6126 0126930 324.6731 034.5938 15.49539052023982 DEORBITSAIL 1 40719U 15032E 17324.77373096 .00000730 00000-0 11266-3 0 9990 2 40719 97.9630 216.4263 0016826 3.9242 356.2097 14.76243402127425 NUDT-PHONESAT 1 40900U 15049B 17325.52823058 .00004079 00000-0 19003-3 0 9999 2 40900 97.4428 331.3131 0014891 41.5086 318.7277 15.20372881120354 XW-2A 1 40903U 15049E 17325.52036998 .00003559 00000-0 92104-4 0 9997 2 40903 97.4078 353.1302 0016140 62.7009 297.5878 15.39633519121843 XW-2C 1 40906U 15049H 17325.53559051 .00001328 00000-0 74744-4 0 9993 2 40906 97.4572 327.9343 0016100 34.8244 325.4038 15.14874986120055 XW-2D 1 40907U 15049J 17325.50720485 .00001414 00000-0 79051-4 0 9994 2 40907 97.4543 327.6341 0015430 33.2910 326.9289 15.15002810120051 LILACSAT-2 1 40908U 15049K 17325.53695507 .00000760 00000-0 46168-4 0 9990 2 40908 97.4649 327.2772 0016982 32.3138 327.9130 15.13322427119969 XW-2F 1 40910U 15049M 17325.54312645 .00002071 00000-0 11084-3 0 9998 2 40910 97.4557 328.6136 0016132 29.9625 330.2528 15.16042374119982 XW-2B 1 40911U 15049N 17325.51760433 .00001379 00000-0 77296-4 0 9996 2 40911 97.4584 328.0966 0015331 33.7332 326.4873 15.14955620119958 DCBB 1 40912U 15049P 17325.51884384 .00001897 00000-0 95824-4 0 9991 2 40912 97.4507 330.8725 0016220 21.0189 99.6501 15.18199617120157 TW-1C 1 40926U 15051B 17325.49507774 .00010157 00000-0 21182-3 0 9995 2 40926 97.2119 3.9599 0009766 326.9897 142.6947 15.45699223121192 TW-1A 1 40928U 15051D 17325.54681760 .00003640 00000-0 10114-3 0 9993 2 40928 97.2103 358.5127 0012302 0.3884 125.5945 15.37436020120868 IO-86 1 40931U 15052B 17325.08698705 .00000802 00000-0 22650-4 0 9990 2 40931 5.9960 194.0044 0013352 304.8002 55.0878 14.76556131116191 GomX-3 1 40949U 98067HA 16292.18357804 .08527750 12374-4 77882-3 0 9992 2 40949 51.6055 106.7696 0006699 286.1344 73.8944 16.38002265 59645 LQSat 1 40958U 15057A 17325.43905978 .00000057 00000-0 16686-4 0 9990 2 40958 97.9649 37.8945 0016827 284.5948 75.3398 14.73001346114260 AO-85 1 40967U 15058D 17325.41478615 .00000164 00000-0 37362-4 0 01560 2 40967 064.7764 101.8930 0183518 021.2684 339.5921 14.75574926022997 ATHENOXAT-1 1 41168U 15077C 17324.54492999 .00002780 00000-0 11799-3 0 9995 2 41168 14.9820 106.7085 0011929 22.2110 303.9324 15.12201544106739 ChubuSat-2 1 41338U 16012B 17324.88641688 .00000534 00000-0 35204-4 0 9995 2 41338 31.0024 196.9690 0013924 171.4350 188.6525 14.99871435 96530 ChubuSat-3 1 41339U 16012C 17325.05978055 .00000485 00000-0 31147-4 0 9994 2 41339 31.0090 194.7669 0013840 180.3481 179.7156 15.00066920 96547 Horyu-4 1 41340U 16012D 17324.89493571 .00000678 00000-0 45353-4 0 9990 2 41340 031.0043 192.1937 0014223 188.5922 171.4471 15.00805389096575 OUFTI-1 1 41458U 16025C 17325.37474249 .00001761 00000-0 95883-4 0 9996 2 41458 98.1659 11.8869 0173554 123.7757 238.0132 15.03942645 86194 e-st@r-II 1 41459U 16025D 17325.54786226 .00003342 00000-0 17857-3 0 9998 2 41459 98.1671 11.9771 0173986 123.7935 237.9997 15.03736870 86210 AAUSAT4 1 41460U 16025E 17325.44005997 .00002518 00000-0 13495-3 0 9996 2 41460 98.1596 12.0903 0166260 121.4366 240.3229 15.04893779 86238 NODES 1 1 41477U 98067HX 17262.38431888 .17021661 12538-4 46079-3 0 9990 2 41477 51.6074 225.8859 0003017 249.6794 110.5489 16.45625800 77086 NODES 2 1 41478U 98067HY 17266.27255257 .13534231 12598-4 22876-3 0 9990 2 41478 51.6086 206.1528 0005980 262.1280 97.9071 16.47641774 77698 LO-87 1 41557U 16033B 17325.18581368 .00001971 00000-0 75378-4 0 9995 2 41557 97.4532 44.6703 0014429 166.7937 193.3683 15.27720513 82395 NuSat2 1 41558U 16033C 17325.43267248 .00002953 00000-0 11214-3 0 9991 2 41558 97.4560 44.9878 0013918 164.5063 195.6605 15.27551791 82424 Lapan A3 1 41603U 16040E 17325.44873938 .00000336 00000-0 19063-4 0 9994 2 41603 97.4424 25.3877 0011845 244.2491 237.5496 15.19466205 78531 Swayam 1 41607U 16040J 17325.15571478 .00002103 00000-0 96372-4 0 9992 2 41607 97.4421 25.7912 0012605 244.4528 115.5405 15.21528935 78463 Pratham 1 41783U 16059A 17325.41279084 .00000123 00000-0 33400-4 0 9997 2 41783 98.1481 24.9995 0034177 29.8680 330.4463 14.62880630 61580 AlSat 1N 1 41789U 16059G 17325.40751161 .00000151 00000-0 37904-4 0 9997 2 41789 98.1488 25.8021 0029105 23.6340 336.6194 14.64102175 61619 ScatSat 1 41790U 16059H 17324.76245031 .00000045 00000-0 22775-4 0 9993 2 41790 098.2908 010.9914 0018655 014.7871 345.3866 14.50849420060969 TY-1 1 41844U 16066D 17325.51718534 .00002142 00000-0 94848-4 0 9998 2 41844 97.4055 330.3519 0017526 49.5481 67.6253 15.22608629 57270 CAS-2T 1 41845U 16066E 17325.53316297 .00000183 00000-0 37529-4 0 9997 2 41845 98.7698 344.8788 0367266 141.0548 221.7717 14.37829305 54105 Pegasus-1 1 41846U 16066F 17324.89721060 .00000406 00000-0 71646-4 0 9990 2 41846 098.7727 343.8997 0369490 144.7931 217.8280 14.37188814053986 STARS-C 1 41895U 98067KR 17325.45959669 .00116275 00000-0 69873-3 0 9996 2 41895 51.6358 314.1359 0003772 96.6323 263.5107 15.76877584 52651 Tancredo 1 1 41931U 98067KT 17290.98270503 .14164078 12479-4 76733-3 0 9998 2 41931 51.6104 115.9004 0006182 280.1451 79.8879 16.42240901 42996 TO-89 1 41932U 98067KU 17325.29420788 .00033430 00000-0 33043-3 0 9996 2 41932 51.6392 322.8965 0004962 113.2960 246.8558 15.65544982 48093 AOBA-V3LOX3 1 41935U 98067KX 17325.47730872 .00039682 00000-0 37321-3 0 9995 2 41935 51.6385 321.1058 0004381 111.6094 248.5369 15.66705633 48236 OSNSAT 1 41939U 98067KZ 17325.23138726 .00199123 00000-0 83494-3 0 9992 2 41939 51.6338 310.3025 0007153 93.0264 267.1558 15.84425008 47606 EO-88 1 42017U 17008BX 17324.90558977 .00002076 00000-0 89381-4 0 9995 2 42017 097.4768 025.9614 0007480 043.4220 316.7605 15.23728052042344 HAVELSAT 1 42700U 98067LH 17325.45631052 .00030484 00000-0 34952-3 0 9992 2 42700 51.6389 329.2051 0003944 175.4178 184.6853 15.61809615 29460 SOMP2 1 42701U 98067LJ 17325.54957817 .00031464 00000-0 36702-3 0 9997 2 42701 51.6385 329.0794 0003981 175.8887 184.2140 15.61345901 29469 Columbia 1 42702U 98067LK 17325.46427506 .00118961 00000-0 89293-3 0 9997 2 42702 51.6355 324.7275 0003620 109.5382 250.6007 15.71716431 29446 PHOENIX 1 42706U 98067LP 17325.47265380 .00025008 00000-0 29203-3 0 9996 2 42706 51.6386 329.3174 0001650 89.9153 270.2030 15.61453771 29371 X-CubeSat 1 42707U 98067LQ 17325.46578166 .00032107 00000-0 36826-3 0 9992 2 42707 51.6372 329.2594 0001791 86.7947 273.3252 15.61778436 29361 qbee 1 42708U 98067LR 17325.21884409 .00021157 00000-0 24723-3 0 9992 2 42708 51.6379 330.6118 0001770 87.5326 272.5871 15.61545664 29288 ZA-AeroSat 1 42713U 98067LU 17325.47817581 .00028520 00000-0 34547-3 0 9999 2 42713 51.6385 330.1019 0003014 89.6457 270.4881 15.60416651 29029 LINK 1 42714U 98067LV 17325.50064584 .00045062 00000-0 48541-3 0 9990 2 42714 51.6365 328.7361 0003416 81.8829 278.2553 15.63228604 29152 UPSat 1 42716U 98067LX 17325.43012047 .00038941 00000-0 42847-3 0 9992 2 42716 51.6384 329.0298 0002251 163.4196 196.6872 15.62754057 29161 SpaceCube 1 42717U 98067LY 17325.49084813 .00032591 00000-0 37832-3 0 9992 2 42717 51.6382 329.4338 0002482 169.3175 190.7872 15.61458019 28406 Hoopoe 1 42718U 98067LZ 17325.46001728 .00034623 00000-0 39104-3 0 9996 2 42718 51.6383 329.2281 0002383 162.8806 197.2269 15.62138336 28402 Challenger 1 42721U 98067MA 17325.46225053 .00049147 00000-0 50663-3 0 9999 2 42721 51.6369 328.4773 0004878 146.3460 213.7845 15.64304281 28119 NJUST-1 1 42722U 98067MB 17325.51263490 .00022936 00000-0 28291-3 0 9992 2 42722 51.6388 330.3281 0005863 161.7458 198.3747 15.60060333 28099 UNSW-EC0 1 42723U 98067MC 17325.55818760 .00038141 00000-0 43100-3 0 9994 2 42723 51.6391 329.1373 0005185 154.2805 205.8448 15.62066250 28090 DUTHsat 1 42724U 98067MD 17325.48490094 .00048875 00000-0 51188-3 0 9993 2 42724 51.6379 328.6404 0004098 146.2199 213.9058 15.63907947 28012 LO-90 1 42725U 98067ME 17325.49485337 .00030218 00000-0 36119-3 0 9998 2 42725 51.6388 330.2127 0004672 159.0839 201.0346 15.60727383 27990 nSIGHT1 1 42726U 98067MF 17325.47960716 .00013494 00000-0 18245-3 0 9993 2 42726 51.6397 331.6175 0005499 168.4507 191.6613 15.58055609 27985 QBITO 1 42728U 98067MH 17325.45638961 .00032792 00000-0 38235-3 0 9990 2 42728 51.6402 329.9702 0002217 147.5624 212.5507 15.61340161 27803 Aalto-2 1 42729U 98067MJ 17325.45517023 .00032858 00000-0 38239-3 0 9993 2 42729 51.6389 329.9506 0002173 145.7692 214.3442 15.61388248 27813 SUSat 1 42730U 98067MK 17325.27888014 .00030273 00000-0 35768-3 0 9999 2 42730 51.6385 331.0181 0002398 145.4017 214.7133 15.61036670 27776 i-INSPIRE II 1 42731U 98067ML 17325.54366004 .00037958 00000-0 42525-3 0 9996 2 42731 51.6373 329.0204 0006974 106.9732 253.2027 15.62279437 27879 PolyITAN-2-SAU 1 42732U 98067MM 17325.25479692 .00033049 00000-0 38223-3 0 9990 2 42732 51.6381 330.8448 0006979 107.2156 252.9602 15.61524116 27824 SNUSAT-1 1 42733U 98067MN 17325.53532798 .00029956 00000-0 35396-3 0 9999 2 42733 51.6383 329.7220 0006983 111.2363 248.9377 15.61018871 27866 ExAlta-1 1 42734U 98067MP 17325.54898480 .00040295 00000-0 45159-3 0 9991 2 42734 51.6374 329.0582 0007411 132.4434 227.7188 15.62238517 27825 Aoxiang-1 1 42735U 98067MQ 17325.50546456 .00023231 00000-0 28504-3 0 9997 2 42735 51.6381 330.2747 0006459 159.1374 200.9884 15.60187648 29229 BeEagleSat 1 42736U 98067MR 17325.48993616 .00029174 00000-0 35030-3 0 9993 2 42736 51.6379 330.1713 0006219 156.1446 203.9837 15.60619514 27917 Atlantis 1 42737U 98067MS 17325.40950017 .00099906 00000-0 83013-3 0 9998 2 42737 51.6347 326.6022 0005190 120.9241 239.2266 15.69349296 27841 CAS-4B 1 42759U 17034B 17325.57971130 .00000317 00000-0 33203-4 0 9999 2 42759 43.0174 142.8325 0008824 254.1912 165.1465 15.09107457 24080 CAS-4A 1 42761U 17034D 17325.57260255 .00000296 00000-0 31887-4 0 9993 2 42761 43.0176 142.7717 0009208 256.4161 166.9491 15.09182528 24076 UCLSat 1 42765U 17036A 17324.86893743 .00001645 00000-0 76607-4 0 9992 2 42765 097.4310 022.7920 0013691 087.5617 272.7186 15.21252546023625 NIUSat 1 42766U 17036B 17324.93047996 .00001487 00000-0 72157-4 0 9992 2 42766 097.4313 022.5639 0017759 074.2815 286.0377 15.19910611022895 LituanicaSAT 2 1 42768U 17036D 17325.36445117 .00004018 00000-0 18660-3 0 9990 2 42768 97.4314 23.0522 0017627 76.0667 284.2527 15.20442064 22974 InflateSail 1 42770U 17036F 17245.93730135 .99999999 00000-0 73960-1 0 9995 2 42770 097.4262 306.2162 0014869 278.7167 080.9844 16.07641391010932 Aalto 1 1 42775U 17036L 17324.88354582 .00001257 00000-0 60805-4 0 9990 2 42775 097.4311 022.6224 0015985 075.4319 284.8688 15.20338627022844 URSA MAIOR 1 42776U 17036M 17325.47160624 .00001712 00000-0 81494-4 0 9992 2 42776 97.4314 23.2174 0015809 73.8149 286.4825 15.20400700 22930 Max Valier Sat 1 42778U 17036P 17324.77398101 .00001805 00000-0 84738-4 0 9996 2 42778 097.4333 022.6522 0014419 081.4322 278.8547 15.20832667022822 Pegasus 1 42784U 17036V 17324.75110643 .00002029 00000-0 94146-4 0 9997 2 42784 97.4315 22.6486 0014204 87.6641 272.6220 15.21100616 22825 NUDATSat 1 42787U 17036Y 17324.92929772 .00002336 00000-0 10688-3 0 9999 2 42787 097.4315 022.8694 0013817 087.5715 272.7102 15.21434717022698 SUCHAI 1 1 42788U 17036Z 17325.39670915 .00002806 00000-0 12836-3 0 9993 2 42788 97.4312 23.3122 0013859 85.9683 274.3136 15.21282361 22994 SKCUBE 1 42789U 17036AA 17324.86767698 .00001742 00000-0 80888-4 0 9991 2 42789 097.4312 022.7949 0013687 087.6217 272.6585 15.21282684022836 VZLUSAT 1 1 42790U 17036AB 17324.72526774 .00002946 00000-0 13388-3 0 9993 2 42790 097.4312 022.6760 0013366 088.5779 271.6987 15.21473062022810 VENTA 1 1 42791U 17036AC 17324.92387673 .00001824 00000-0 84372-4 0 9995 2 42791 097.4312 022.8712 0013265 087.8967 272.3787 15.21356476022836 Robusta 1B 1 42792U 17036AD 17324.92083354 .00001822 00000-0 84118-4 0 9991 2 42792 097.4310 022.8713 0013264 088.4828 271.7927 15.21416230022854 D-SAT 1 42794U 17036AF 17324.90466378 .00000608 00000-0 59082-4 0 9995 2 42794 097.6233 022.0806 0125986 254.8308 103.8949 14.90708203022694 BIRD-J 1 42820U 98067MU 17324.49020567 .00017634 00000-0 22110-3 0 9996 2 42820 51.6378 336.2440 0003853 82.6143 277.5288 15.59829825 21201 BIRD-G 1 42821U 98067MV 17325.45933265 .00024499 00000-0 30600-3 0 9992 2 42821 51.6381 331.4668 0003792 89.1233 271.0195 15.59697560 21338 BIRD-M 1 42822U 98067MW 17324.88234116 .00017290 00000-0 21783-3 0 9991 2 42822 051.6381 334.3640 0003750 088.6858 271.4564 15.59719325021262 BIRD-B 1 42823U 98067MX 17324.49982243 .00018127 00000-0 22799-3 0 9998 2 42823 51.6387 336.3142 0006233 114.2755 245.8890 15.59714688 21184 BIRD-N 1 42824U 98067MY 17325.21064887 .00017290 00000-0 21834-3 0 9994 2 42824 51.6393 332.8141 0006095 117.2206 242.9408 15.59648030 21283 TechnoSat 1 42829U 17042E 17325.49106701 .00000475 00000-0 53804-4 0 9995 2 42829 97.6075 230.4823 0014539 164.4280 195.7388 14.90722198 19396 Mayak 1 42830U 17042F 17325.48091736 .00001459 00000-0 15296-3 0 9992 2 42830 97.6082 230.5057 0014560 162.0951 198.0784 14.90961641 19382 OBJECT MZ 1 42910U 98067MZ 17325.48720960 .00020997 00000-0 27687-3 0 9990 2 42910 51.6377 332.3933 0006707 143.1735 216.9719 15.58345082 14930 OBJECT NA 1 42911U 98067NA 17325.48295969 .00022373 00000-0 29211-3 0 9992 2 42911 51.6388 332.3814 0006356 136.4977 223.6518 15.58567894 14911 OBJECT NB 1 42912U 98067NB 17325.49601159 .00022339 00000-0 29470-3 0 9995 2 42912 51.6376 332.4379 0005531 149.2909 210.8408 15.58296843 14938 OBJECT NC 1 42913U 98067NC 17325.44071897 .00038122 00000-0 46296-3 0 9993 2 42913 51.6378 332.0850 0003919 147.1860 212.9377 15.60196698 14895 OBJECT ND 1 42914U 98067ND 17324.92509860 .00014452 00000-0 19476-3 0 9992 2 42914 051.6387 335.4015 0005564 140.3307 219.8093 15.58075308014819 QIKCOM-1 1 42983U 98067NF 17325.45879037 .00004225 00000-0 69613-4 0 9999 2 42983 51.6434 334.2203 0005555 138.6019 337.6401 15.54703655 3880 AO-91 1 43016U 17073D 17324.81992359 .00000855 00000-0 73563-4 0 9991 2 43016 97.6901 259.8749 0259544 229.6727 128.1552 14.77757019 356 /EX